TimeEDT,TemperatureF,Dew PointF,Humidity,Sea Level PressureIn,VisibilityMPH,Wind Direction,Wind SpeedMPH,Gust SpeedMPH,PrecipitationIn,Events,Conditions,WindDirDegrees,DateUTC
12:53 AM,37.9,30.9,76,30.35,10.0,East,9.2,-,N/A,,Clear,100,2011-11-05 04:53:00
1:53 AM,36.0,30.9,82,30.35,10.0,East,6.9,-,N/A,,Clear,100,2011-11-05 05:53:00
2:53 AM,37.9,30.9,76,30.34,10.0,ESE,10.4,-,N/A,,Clear,120,2011-11-05 06:53:00
3:53 AM,37.0,30.9,79,30.34,10.0,SE,8.1,-,N/A,,Clear,130,2011-11-05 07:53:00
4:53 AM,33.8,30.2,87,30.31,10.0,ESE,5.8,-,N/A,,Clear,110,2011-11-05 08:53:00
5:53 AM,34.0,30.0,85,30.33,10.0,ESE,4.6,-,N/A,,Scattered Clouds,110,2011-11-05 09:53:00
6:53 AM,32.0,28.9,88,30.34,10.0,East,4.6,-,N/A,,Scattered Clouds,100,2011-11-05 10:53:00
7:53 AM,32.0,28.4,87,30.32,9.0,East,3.5,-,N/A,,Partly Cloudy,90,2011-11-05 11:53:00
8:53 AM,30.0,27.0,88,30.35,6.0,East,5.8,-,N/A,,Scattered Clouds,80,2011-11-05 12:53:00
9:53 AM,36.0,32.0,86,30.35,8.0,ESE,5.8,-,N/A,,Scattered Clouds,120,2011-11-05 13:53:00
11:53 AM,48.0,33.1,56,30.33,10.0,SSE,9.2,-,N/A,,Scattered Clouds,160,2011-11-05 15:53:00
12:53 PM,50.0,30.9,48,30.31,10.0,South,13.8,-,N/A,,Partly Cloudy,170,2011-11-05 16:53:00
1:53 PM,52.0,28.9,41,30.28,10.0,SSE,8.1,-,N/A,,Partly Cloudy,160,2011-11-05 17:53:00
2:53 PM,54.0,27.0,35,30.25,10.0,South,9.2,-,N/A,,Partly Cloudy,170,2011-11-05 18:53:00
3:53 PM,55.4,26.6,33,30.22,10.0,South,9.2,-,N/A,,Partly Cloudy,170,2011-11-05 19:53:00
4:53 PM,55.9,26.1,32,30.21,10.0,SSE,9.2,-,N/A,,Partly Cloudy,160,2011-11-05 20:53:00
5:53 PM,52.0,26.1,37,30.20,10.0,SSE,8.1,-,N/A,,Partly Cloudy,150,2011-11-05 21:53:00
6:53 PM,48.0,25.0,41,30.19,10.0,SE,6.9,-,N/A,,Partly Cloudy,140,2011-11-05 22:53:00
7:53 PM,45.0,25.0,46,30.19,10.0,SE,8.1,-,N/A,,Partly Cloudy,130,2011-11-05 23:53:00
8:53 PM,44.1,25.0,47,30.19,10.0,SE,6.9,-,N/A,,Partly Cloudy,130,2011-11-06 00:53:00
9:53 PM,43.0,26.1,51,30.18,10.0,SE,6.9,-,N/A,,Scattered Clouds,130,2011-11-06 01:53:00
10:53 PM,41.0,27.0,57,30.17,10.0,ESE,5.8,-,N/A,,Mostly Cloudy,120,2011-11-06 02:53:00
11:53 PM,39.0,27.0,62,30.17,10.0,ESE,5.8,-,N/A,,Scattered Clouds,120,2011-11-06 03:53:00